This demonstration page uses our WeatherBlox Daily Observations layout. Learn more.

Left ArrowRight Arrow

Hourly Observations for June 17, 2018

Temp ( °F °C ) Dew Point ( °F °C ) Humidity (%) Winds ( mph kmh ) Pressure ( in mb ) Visibility ( mi km ) Precip ( " mm )
12:54 am 00:54 Clear 82 27.8 67 19.4 60 60 S 14 22 29.77 1008 10 16 0.00 0.00
1:54 am 01:54 Clear 82 27.8 67 19.4 60 60 SSE 13 20 29.77 1008 10 16 0.00 0.00
2:54 am 02:54 Clear 79 26.1 67 19.4 67 67 S 14 22 29.76 1008 10 16 0.00 0.00
3:54 am 03:54 Clear 77 25 68 20 74 74 SSE 10 17 29.77 1008 10 16 0.00 0.00
4:54 am 04:54 Clear 77 25 68 20 74 74 S 12 19 29.77 1008 10 16 0.00 0.00
5:54 am 05:54 Clear 77 25 67 19.4 71 71 S 12 19 29.79 1009 10 16 0.00 0.00
6:54 am 06:54 Sunny 77 25 67 19.4 71 71 S 14 22 29.82 1010 10 16 0.00 0.00
7:54 am 07:54 Sunny 81 27.2 68 20 65 65 S 15 24 29.82 1010 10 16 0.00 0.00
8:54 am 08:54 Sunny 82 27.8 68 20 63 63 S 20 31 29.83 1010 10 16 0.00 0.00
9:54 am 09:54 Sunny 85 29.4 69 20.6 59 59 S 15 24 29.83 1010 10 16 0.00 0.00
10:54 am 10:54 Partly Cloudy 84 28.9 67 19.4 57 57 SSW 14 22 29.85 1011 10 16 0.00 0.00
11:54 am 11:54 Mostly Cloudy 84 28.9 69 20.6 61 61 SSW 9 15 29.86 1011 10 16 0.00 0.03
12:54 pm 12:54 Mostly Cloudy 86 30 70 21.1 59 59 S 6 9 29.85 1011 10 16 0.00 0.00
1:54 pm 13:54 Mostly Sunny 90 32.2 71 21.7 54 54 S 12 19 29.83 1010 10 16 0.00 0.00
2:54 pm 14:54 Sunny 90 32.2 70 21.1 52 52 SSE 15 24 29.80 1009 10 16 0.00 0.03
3:54 pm 15:54 Mostly Sunny 90 32.2 70 21.1 52 52 SSE 15 24 29.80 1009 10 16 0.00 0.00
4:54 pm 16:54 Partly Cloudy 93 33.9 72 22.2 50 50 SSE 16 26 29.78 1008 10 16 0.00 0.00
5:54 pm 17:54 Sunny 91 32.8 71 21.7 52 52 S 16 26 29.78 1009 10 16 0.00 0.00
6:54 pm 18:54 Mostly Cloudy 90 32.2 71 21.7 54 54 SSE 12 19 29.78 1009 10 16 0.00 0.00
7:54 pm 19:54 Sunny 87 30.6 69 20.6 55 55 S 8 13 29.78 1008 10 16 0.00 0.00
8:54 pm 20:54 Sunny 85 29.4 69 20.6 59 59 SSW 10 17 29.78 1008 10 16 0.00 0.00
9:54 pm 21:54 Clear 84 28.9 66 18.9 55 55 S 10 17 29.79 1009 10 16 0.00 0.00
10:54 pm 22:54 Clear 84 28.9 67 19.4 57 57 S 12 19 29.82 1010 10 16 0.00 0.00
11:54 pm 23:54 Clear 84 28.9 67 19.4 57 57 S 15 24 29.83 1010 10 16 0.00 0.00

Powered by AerisWeather